Temperature
12 12 12 12 12 12 12 12 12 13 13 13 13 13 13 13 13 13 13 13 13 13 13 13 13 13 13 13 13 13 13 13 13 13 13 13 13 13 13 13 13 12 12
12 12 12 12 12 12 12 12 12 12 12 12 12 12 12 12 12 12 13 13 13 13 13 13 13 13 13 13 13 13 13 13 13 13 13 13 13 13 13 13 12 12 12
12 12 12 11 11 11 11 11 11 11 11 12 12 12 12 12 12 12 12 12 12 12 12 12 12 12 13 12 12 13 13 13 13 13 12 12 12 12 12 12 12 12 12
11 11 11 11 11 11 11 11 11 11 11 11 11 11 11 11 12 12 12 12 12 12 12 12 12 12 12 12 12 12 12 12 12 12 12 12 12 12 12 12 12 11 11
11 11 11 11 11 11 11 11 11 11 11 11 11 11 11 11 11 11 11 11 11 11 11 11 11 11 12 12 12 12 12 12 12 12 12 11 11 11 11 11 11 11 11
10 10 10 10 10 10 10 10 10 10 10 10 10 10 10 10 10 11 11 11 11 11 11 11 11 11 11 11 11 11 11 11 11 11 11 11 11 11 11 11 11 11 10
10 10 10 10 10 10 10 9 9 10 10 10 10 10 10 10 10 10 10 10 10 10 10 10 10 10 10 10 10 10 11 11 11 11 11 10 10 10 10 10 10 10 10
9 9 9 9 9 9 9 9 9 9 9 9 9 8 8 9 9 9 9 9 10 10 10 10 10 9 10 10 10 10 10 10 10 10 10 10 10 10 10 10 10 10 10
9 9 9 9 8 8 8 8 8 8 8 8 8 7 7 8 8 8 9 9 9 9 9 9 9 9 9 9 9 9 9 9 9 9 9 9 9 9 9 9 9 9 9
8 8 8 8 8 8 8 8 8 8 7 7 7 7 7 6 6 7 8 8 8 8 8 8 8 8 8 8 8 8 9 9 9 9 9 9 9 9 9 9 9 9 9
8 8 8 7 7 7 7 7 7 7 7 7 7 6 6 6 6 6 6 7 7 7 7 8 8 8 8 8 8 8 8 8 8 8 8 8 8 8 8 8 8 8 8
7 7 7 7 7 7 7 7 7 6 6 6 6 6 6 6 6 6 5 6 6 6 7 7 7 7 7 7 7 7 7 7 7 8 8 8 7 8 8 8 8 8 8
7 7 7 7 7 7 6 6 6 6 6 6 6 5 5 5 5 5 5 5 5 5 6 6 6 6 6 6 6 6 7 7 7 7 7 7 7 7 7 7 7 7 7
7 6 6 6 6 6 6 6 6 6 5 5 5 5 5 5 5 5 4 4 4 4 5 5 5 5 5 6 6 6 6 6 6 6 6 6 7 7 7 7 7 7 7
6 6 6 6 6 6 5 5 5 5 5 5 5 5 4 4 4 4 4 4 3 3 4 4 4 5 5 5 5 5 5 5 5 6 6 6 6 6 6 6 6 6 6
6 6 5 5 5 5 5 5 5 5 4 4 4 4 4 4 4 4 4 3 3 3 3 3 3 4 4 4 4 4 5 5 5 5 5 5 5 5 5 5 5 5 5
5 5 5 5 5 4 4 4 4 4 4 4 4 3 3 3 3 3 3 3 3 2 2 2 3 3 3 3 4 4 4 4 4 4 5 4 5 5 5 4 4 4 4
5 5 4 4 4 4 4 4 3 3 3 3 3 3 3 3 3 3 2 2 2 2 2 2 2 2 3 3 3 3 3 3 3 4 4 4 4 4 4 4 4 4 4
4 4 4 4 4 3 3 3 3 3 3 2 2 2 2 2 2 2 2 2 2 2 1 1 2 2 2 2 2 2 2 3 3 3 3 3 3 3 3 3 3 3 3
4 4 3 3 3 3 3 2 2 2 2 2 2 2 2 2 2 1 1 1 1 1 1 1 1 1 1 1 1 2 2 2 2 2 3 3 3 3 3 3 3 3 3
3 3 3 3 2 2 2 2 2 2 1 1 1 1 1 1 1 1 1 1 1 1 1 0 0 0 1 1 1 1 1 1 2 2 2 2 2 2 2 2 2 2 2
3 3 2 2 2 2 1 1 1 1 1 1 1 1 1 1 1 1 0 0 0 -0 -0 -0 -0 -0 -0 -0 -0 -0 -0 -0 0 0 0 1 1 1 2 2 2 2 2
2 2 2 2 1 1 1 1 1 1 1 0 0 0 0 0 0 0 -0 -0 -0 -0 -1 -1 -1 -1 -1 -1 -1 -1 -1 -1 -1 -1 -1 -0 0 1 1 1 1 1 1
2 2 2 1 1 1 1 0 0 0 0 -0 -0 -0 -0 -0 -0 -1 -1 -1 -1 -1 -1 -1 -1 -1 -1 -1 -2 -2 -2 -2 -1 -1 -1 -1 -1 -0 0 1 1 1 1
2 1 1 1 1 1 0 -0 -0 -0 -0 -0 -0 -1 -1 -1 -1 -1 -1 -1 -1 -1 -1 -1 -1 -2 -2 -2 -2 -2 -2 -2 -2 -2 -2 -2 -2 -2 -1 0 0 0 -0
1 1 1 1 0 0 -0 -0 -1 -1 -1 -1 -1 -1 -1 -1 -1 -2 -2 -2 -2 -2 -2 -2 -2 -2 -2 -2 -2 -2 -3 -3 -3 -3 -3 -3 -3 -3 -3 -2 -1 -0 -1
Wind_Speed
2 2 2 3 4 4 3 3 3 4 4 4 5 4 4 5 5 5 6 8 10 11 12 12 12 12 12 12 12 11 11 11 11 11 10 10 10 9 9 9 9 9 9
3 2 2 3 3 4 4 3 3 3 3 3 4 4 4 5 5 5 5 6 7 8 10 11 11 10 10 11 11 11 11 11 10 10 11 10 9 9 9 9 9 9 8
5 3 2 2 3 5 4 3 3 3 3 3 4 4 4 4 3 3 4 4 4 5 6 7 8 9 9 10 11 11 11 11 11 10 10 11 11 10 10 9 9 9 9
6 4 2 2 4 4 3 2 2 2 3 3 4 4 4 3 3 3 2 2 2 3 4 5 6 7 7 9 10 10 10 10 10 10 10 11 11 11 11 11 10 10 9
7 5 3 4 5 4 3 3 3 2 3 4 4 4 3 3 2 2 1 2 2 3 3 4 5 6 6 7 9 10 10 10 10 10 11 11 11 12 12 12 12 12 11
6 6 4 5 5 3 3 3 3 3 2 3 4 4 3 3 2 2 2 1 1 2 3 4 4 5 7 8 9 10 10 10 10 11 11 11 11 12 12 12 12 12 13
6 5 4 4 4 3 3 4 3 3 3 3 3 3 3 2 2 2 2 1 2 2 3 3 3 3 5 7 8 9 10 10 11 11 11 12 12 13 14 13 13 12 13
5 4 3 3 3 3 3 4 3 2 3 2 1 2 3 3 2 2 1 1 2 3 3 3 3 3 4 4 6 8 9 10 11 12 11 12 13 13 14 16 15 14 14
4 4 3 3 3 2 3 3 3 2 3 3 1 1 2 3 3 2 2 2 2 2 3 3 3 4 5 4 5 7 8 9 11 12 12 11 12 13 14 14 15 16 15
4 4 3 3 2 2 2 3 3 2 2 3 2 1 2 2 3 4 3 2 3 3 4 4 3 4 4 4 5 6 8 9 11 13 13 13 13 13 14 13 14 14 15
3 3 3 2 2 2 2 3 3 3 2 2 2 2 2 3 3 4 6 4 4 3 3 4 3 3 4 4 4 6 8 10 11 13 13 14 14 13 13 13 13 13 13
2 3 3 2 2 2 2 2 2 3 3 3 2 2 2 3 3 3 5 6 6 4 4 3 3 3 3 3 5 8 8 10 11 12 13 13 12 12 12 12 12 12 13
2 3 3 2 2 2 2 2 2 3 3 3 3 3 3 3 3 4 5 6 6 5 4 3 3 3 3 5 6 9 9 10 11 13 14 14 12 12 11 11 11 11 12
2 3 2 2 3 3 3 2 2 3 2 2 3 3 2 3 3 3 4 4 6 6 4 4 3 2 4 6 7 9 9 11 12 13 13 13 12 10 10 10 11 12 12
2 2 2 2 3 3 3 2 2 3 2 2 2 3 3 3 3 3 3 3 5 7 7 4 3 3 5 6 8 8 9 12 13 13 12 12 11 10 10 10 11 11 12
2 2 2 2 3 3 3 2 2 3 2 3 2 3 3 3 3 3 3 4 4 6 8 5 5 5 6 7 10 10 10 13 12 13 12 12 11 11 11 11 11 12 12
2 2 2 3 3 3 3 2 2 3 3 3 3 3 4 4 4 3 3 4 4 5 8 7 5 5 5 6 7 9 9 10 10 12 12 11 11 11 11 11 11 11 12
2 2 2 2 3 3 3 3 3 3 3 3 4 4 5 4 4 4 4 4 4 5 6 9 7 5 6 6 6 7 8 9 10 11 11 11 11 11 11 11 11 12 12
3 2 2 2 3 3 3 3 3 3 3 4 4 4 5 5 5 4 5 5 4 5 5 7 7 5 5 5 5 6 7 6 9 10 10 11 11 11 12 12 12 12 13
3 3 3 3 3 3 3 3 3 4 4 5 5 5 5 5 5 5 5 5 5 5 5 6 7 6 6 5 4 5 7 5 6 7 8 9 11 12 12 12 12 12 12
4 3 3 3 3 3 3 3 3 4 4 5 5 5 5 6 7 6 5 5 4 4 5 6 6 6 6 5 5 5 7 7 6 4 4 5 7 7 8 10 11 11 12
4 3 3 4 4 4 6 7 5 4 4 5 5 5 6 6 8 9 10 9 7 6 6 6 6 7 7 6 6 6 6 6 6 2 4 7 5 5 6 7 10 12 13
4 4 4 4 5 6 8 8 8 5 4 5 5 5 6 6 7 5 8 9 9 10 10 7 8 8 8 7 7 7 6 7 7 5 5 7 4 6 6 9 12 12 12
4 4 5 5 4 6 8 8 8 4 4 5 5 5 6 6 6 6 5 6 7 7 8 7 7 8 8 7 7 7 7 6 6 5 4 6 5 5 7 9 11 11 11
4 4 4 4 5 6 8 8 7 3 4 5 5 5 5 6 10 10 6 6 7 7 9 10 11 10 11 11 9 5 4 4 6 5 2 3 4 6 6 6 7 9 10
5 5 5 5 5 5 8 9 7 3 4 5 5 5 7 8 10 11 7 6 8 8 7 7 7 8 8 8 9 6 5 5 5 4 2 2 4 4 4 3 4 5 7
Wind_Direction
3 357 351 347 336 331 325 320 316 311 303 298 294 291 288 283 278 273 273 264 257 257 258 257 250 244 240 237 236 236 235 236 234 235 235 233 232 235 238 241 246 250 252
9 357 349 343 334 324 316 310 311 305 296 297 294 292 283 282 281 281 279 277 272 271 268 265 260 256 250 245 242 240 238 238 240 239 236 232 230 235 239 243 246 247 250
17 12 3 348 338 334 334 331 326 321 313 309 299 296 294 289 287 286 286 287 293 292 283 279 275 266 263 260 254 250 246 240 236 238 240 235 234 236 239 243 246 248 250
15 15 13 348 345 352 354 339 332 330 321 315 308 305 307 305 301 302 302 313 311 305 301 293 286 278 271 269 266 261 255 250 243 237 239 240 238 238 240 241 244 247 250
15 15 9 354 353 1 356 343 345 333 320 318 308 307 310 307 304 310 335 354 339 327 314 302 291 288 280 277 276 272 267 262 253 248 244 244 243 240 241 243 244 246 249
15 13 9 2 3 3 353 348 337 338 321 315 313 315 311 302 307 300 288 332 0 343 339 330 315 298 287 279 279 277 275 271 264 256 252 251 248 243 241 245 248 249 251
14 15 11 4 3 360 346 340 334 335 335 335 335 324 315 297 284 291 310 321 343 351 346 334 318 312 304 290 286 285 280 274 272 267 267 260 255 252 245 245 247 250 254
12 12 20 4 354 356 351 344 341 332 333 353 345 322 316 319 313 311 308 301 317 337 339 328 315 304 297 299 296 288 284 281 277 272 271 269 263 261 259 251 248 250 253
6 4 9 10 352 354 342 333 327 324 316 323 330 258 285 281 312 288 287 303 316 316 315 328 320 313 302 294 299 300 293 290 284 279 276 276 275 269 267 265 257 255 253
356 354 360 6 352 348 336 324 331 314 296 301 309 283 260 271 283 299 290 294 306 303 302 309 305 315 306 299 299 306 307 299 292 285 282 281 280 280 276 275 268 262 260
349 347 349 352 344 334 326 322 324 320 304 284 284 287 289 293 270 272 289 296 297 285 289 290 293 310 314 307 311 311 307 300 295 292 288 286 284 282 282 280 279 270 265
333 336 338 340 332 328 326 323 318 315 309 301 296 286 277 277 280 275 281 292 295 292 292 284 286 294 314 321 314 313 305 299 296 294 289 288 288 288 285 285 285 283 271
310 314 322 325 324 318 319 322 322 319 312 302 297 293 289 282 279 277 279 290 294 295 289 283 283 303 317 326 315 312 306 299 296 292 288 287 287 288 288 287 288 295 284
279 290 300 310 315 317 321 321 321 314 314 306 306 302 301 297 293 284 279 286 294 294 287 279 286 296 323 324 311 313 314 305 298 293 289 287 290 293 291 288 288 290 290
290 291 300 308 314 316 311 309 312 307 309 307 305 306 300 298 295 289 285 276 273 286 288 285 288 296 319 317 310 315 312 307 301 296 292 290 289 289 289 288 288 289 292
279 295 302 303 306 310 310 312 307 305 313 309 303 306 306 303 302 291 285 283 271 269 277 284 285 292 305 307 309 313 307 306 300 296 293 291 289 286 284 285 285 285 290
262 272 282 290 295 302 303 306 302 310 314 314 314 311 305 303 301 301 296 285 274 267 274 285 286 290 284 289 304 311 309 307 303 297 292 291 289 286 285 286 286 284 285
251 260 271 285 290 295 296 295 297 306 302 304 305 305 301 301 300 296 294 287 278 270 272 283 289 288 280 285 292 298 309 310 306 299 295 294 292 288 285 284 283 281 281
245 255 261 273 280 287 292 290 287 293 289 286 287 288 290 292 292 295 294 289 283 282 276 280 287 287 285 290 297 298 298 299 306 302 293 289 289 289 288 286 283 282 281
234 244 254 263 270 278 281 281 287 290 289 286 284 283 285 283 284 287 288 287 289 287 286 284 286 290 288 290 292 297 302 303 300 300 296 299 295 292 287 287 285 284 281
237 238 249 262 268 272 272 277 284 286 284 287 288 286 285 285 282 283 287 286 290 290 289 290 290 293 292 297 294 292 299 304 297 279 291 294 295 289 288 289 287 285 284
236 237 244 253 264 273 279 281 285 274 276 279 286 288 289 288 292 295 292 288 285 285 287 283 286 288 290 289 289 289 294 302 298 275 297 297 288 285 287 288 287 289 285
228 237 243 246 255 266 277 281 283 285 273 274 279 285 292 295 298 296 297 298 295 292 286 280 280 280 282 281 288 290 287 287 283 283 294 290 283 284 286 290 286 284 281
230 238 244 245 255 269 279 283 288 286 275 274 278 282 285 291 295 296 298 301 293 290 289 285 272 275 275 275 272 277 278 285 287 281 276 281 286 285 294 290 281 277 281
236 239 244 244 251 267 277 283 287 281 280 282 286 287 288 289 296 301 299 296 301 300 297 291 289 290 293 294 290 290 288 289 294 291 273 269 286 299 290 277 271 277 288
235 240 247 243 244 257 272 280 284 268 275 284 289 287 286 292 297 301 298 295 298 300 302 305 299 297 295 296 293 277 266 269 288 287 260 280 285 311 302 276 274 282 286
Height
1523 1523 1522 1522 1522 1522 1521 1521 1520 1520 1520 1520 1520 1520 1520 1520 1520 1520 1520 1521 1521 1522 1522 1522 1523 1523 1523 1524 1524 1524 1524 1524 1524 1524 1524 1524 1524 1524 1524 1524 1524 1523 1523
1520 1520 1520 1520 1519 1519 1518 1518 1517 1517 1517 1516 1516 1516 1516 1516 1516 1516 1516 1517 1517 1517 1518 1518 1518 1519 1519 1519 1519 1520 1520 1520 1520 1520 1520 1520 1520 1520 1520 1520 1520 1520 1519
1518 1517 1517 1517 1516 1516 1516 1515 1514 1514 1513 1513 1513 1512 1512 1512 1511 1511 1512 1512 1512 1513 1513 1513 1514 1514 1514 1515 1515 1515 1515 1515 1515 1515 1515 1516 1516 1516 1516 1516 1515 1515 1515
1515 1515 1514 1514 1514 1513 1512 1512 1511 1510 1510 1509 1509 1508 1508 1507 1507 1507 1507 1507 1507 1508 1508 1509 1509 1509 1509 1510 1510 1510 1511 1511 1511 1511 1511 1511 1511 1511 1511 1511 1511 1511 1511
1513 1512 1511 1511 1510 1510 1509 1509 1508 1507 1506 1505 1505 1504 1504 1503 1503 1503 1503 1503 1503 1503 1503 1504 1504 1504 1504 1505 1505 1505 1506 1506 1506 1506 1506 1506 1506 1506 1506 1506 1506 1506 1506
1510 1510 1509 1508 1507 1507 1506 1506 1505 1504 1503 1502 1501 1500 1500 1499 1499 1498 1498 1498 1498 1498 1498 1498 1499 1499 1499 1500 1500 1500 1500 1500 1500 1500 1500 1500 1500 1500 1501 1501 1501 1501 1501
1508 1507 1506 1505 1504 1503 1503 1502 1501 1501 1500 1499 1498 1496 1496 1495 1495 1494 1494 1494 1494 1494 1494 1494 1493 1493 1493 1494 1494 1494 1494 1495 1495 1495 1494 1495 1495 1495 1495 1495 1495 1495 1495
1506 1504 1503 1502 1501 1500 1500 1499 1498 1497 1497 1496 1496 1494 1492 1492 1491 1491 1490 1490 1490 1490 1489 1489 1488 1488 1488 1488 1488 1488 1488 1489 1489 1489 1489 1489 1489 1489 1489 1489 1489 1489 1490
1503 1502 1500 1499 1499 1498 1497 1496 1496 1495 1494 1493 1493 1493 1491 1489 1487 1486 1486 1486 1486 1486 1485 1484 1484 1484 1483 1483 1482 1482 1483 1483 1483 1483 1483 1483 1483 1483 1483 1484 1483 1483 1483
1500 1499 1498 1497 1496 1495 1494 1493 1493 1492 1491 1490 1489 1489 1489 1488 1487 1483 1482 1483 1482 1482 1481 1480 1479 1479 1479 1478 1477 1477 1477 1477 1477 1477 1477 1477 1477 1477 1477 1477 1477 1477 1477
1498 1497 1496 1495 1494 1492 1491 1490 1489 1489 1488 1487 1486 1485 1485 1484 1484 1482 1478 1477 1477 1477 1476 1475 1475 1474 1474 1473 1472 1472 1471 1471 1471 1471 1471 1471 1471 1471 1471 1471 1471 1471 1471
1496 1495 1493 1492 1491 1490 1489 1487 1486 1486 1485 1484 1483 1482 1482 1481 1480 1479 1476 1473 1471 1471 1471 1470 1470 1469 1468 1468 1467 1466 1466 1465 1465 1464 1464 1464 1464 1464 1464 1464 1464 1464 1464
1493 1492 1491 1489 1488 1487 1486 1485 1484 1482 1481 1480 1480 1479 1478 1478 1477 1475 1473 1470 1468 1466 1465 1465 1464 1464 1463 1462 1461 1461 1460 1459 1458 1458 1458 1458 1458 1458 1457 1457 1457 1457 1458
1490 1489 1488 1487 1486 1484 1483 1482 1481 1479 1478 1477 1476 1476 1475 1474 1473 1472 1470 1468 1464 1461 1460 1459 1459 1459 1458 1457 1456 1455 1454 1453 1452 1452 1451 1452 1451 1451 1451 1451 1450 1451 1451
1488 1486 1485 1484 1483 1481 1480 1479 1478 1476 1475 1474 1473 1472 1471 1470 1469 1468 1467 1466 1464 1459 1455 1455 1454 1454 1453 1452 1451 1449 1448 1447 1446 1446 1445 1445 1445 1444 1444 1444 1444 1444 1444
1485 1483 1482 1481 1480 1478 1477 1476 1474 1473 1472 1470 1469 1468 1467 1466 1465 1464 1462 1461 1459 1457 1453 1450 1450 1449 1448 1446 1445 1444 1443 1442 1441 1440 1439 1438 1438 1438 1437 1437 1437 1437 1437
1482 1480 1479 1478 1476 1475 1474 1473 1471 1470 1468 1467 1466 1464 1463 1462 1461 1459 1458 1456 1454 1453 1449 1446 1445 1444 1442 1441 1439 1438 1437 1435 1434 1433 1432 1432 1431 1431 1430 1430 1430 1430 1430
1478 1477 1476 1474 1473 1472 1470 1469 1468 1466 1465 1463 1462 1460 1459 1458 1456 1455 1453 1451 1449 1448 1446 1442 1440 1439 1437 1436 1434 1432 1431 1430 1428 1427 1426 1425 1425 1424 1424 1423 1423 1423 1423
1475 1473 1472 1471 1469 1468 1467 1465 1464 1463 1461 1459 1458 1457 1455 1454 1452 1450 1448 1446 1444 1443 1441 1438 1435 1434 1432 1430 1429 1427 1425 1424 1422 1421 1419 1419 1418 1418 1417 1416 1416 1416 1415
1471 1470 1469 1467 1466 1465 1463 1462 1460 1459 1457 1456 1454 1453 1451 1449 1448 1446 1444 1442 1440 1438 1436 1433 1431 1429 1427 1425 1423 1421 1419 1417 1416 1415 1414 1412 1412 1411 1410 1409 1409 1408 1408
1467 1466 1465 1464 1462 1461 1460 1458 1457 1455 1454 1452 1451 1449 1447 1445 1443 1441 1439 1437 1435 1433 1431 1429 1426 1424 1422 1420 1418 1416 1413 1411 1409 1409 1407 1406 1405 1404 1403 1402 1401 1400 1400
1463 1462 1461 1460 1459 1457 1456 1455 1453 1451 1450 1448 1446 1445 1443 1441 1439 1437 1435 1433 1431 1429 1426 1424 1422 1419 1417 1416 1413 1411 1409 1406 1403 1404 1401 1400 1399 1397 1396 1395 1394 1394 1394
1459 1458 1457 1456 1455 1454 1452 1451 1449 1448 1446 1444 1442 1440 1438 1436 1434 1432 1430 1428 1426 1424 1422 1420 1417 1415 1412 1411 1409 1406 1405 1402 1399 1398 1396 1392 1393 1391 1390 1389 1388 1388 1387
1454 1454 1453 1452 1451 1450 1448 1447 1445 1443 1441 1440 1438 1436 1434 1432 1430 1427 1425 1423 1421 1419 1417 1415 1412 1410 1408 1406 1404 1402 1400 1397 1395 1394 1392 1388 1385 1384 1384 1383 1382 1382 1381
1450 1449 1448 1448 1446 1445 1444 1442 1441 1438 1437 1435 1433 1432 1430 1427 1425 1423 1421 1418 1415 1413 1411 1409 1407 1404 1402 1401 1399 1397 1394 1392 1389 1388 1387 1384 1380 1378 1376 1376 1376 1376 1375
1445 1445 1444 1443 1442 1441 1440 1438 1436 1434 1432 1430 1429 1427 1425 1423 1421 1418 1416 1413 1410 1408 1405 1403 1401 1398 1397 1395 1394 1392 1390 1388 1385 1383 1382 1381 1377 1375 1370 1369 1370 1370 1369